Starlink 30239

operational
NORAD ID: 57291 Int'l Des: 2023-096 Owner: SPXS Country: US Constellation: starlink
LEOCIRCULAR

Starlink 30239について

説明を読み込み中...

リアルタイム位置

3D地球を読み込み中...

次回通過

高度履歴

Altitude vs Time

uPlot chart will show altitude changes over time

軌道要素

1 57291U 23096B 25353.25282082 -.00000070 00000-0 99205-5 0 9999
2 57291 43.0055 300.5755 0001440 267.5729 92.4948 15.02534734135510
Epoch: Dec 19, 2025 • Age: 18 hours

現在のステータス

高度 558.8 km
速度 7.59 km/s
衛星直下点 18.32°N, 2.52°E
打ち上げ日 Jul 10, 2023
運用期間 2.4 years
タイプ internet

技術仕様

分類 Payload
質量 730.00 kg
乾燥質量 700.00 kg
総質量 730.00 kg
長さ 0.30 m
直径 4.10 m
スパン 29.00 m
形状 Box + pan
製造者 SPXS
バスタイプ Starlink V2M
フェーズステータス In Orbit
所有者/国 SPXS/US

大規模コンステレーション

Loading constellations...